Regional Weather Roundup
Issued by NWS

Home | Current Version | Previous Version | Text Only | Print | Product List | Glossary Off
Versions: 1 2 3 4 5 6 7 8 9 10 11 12 13 14 15 16 17 18 19 20 21 22 23 24 25 26 27 28 29 30 31 32 33 34 35 36 37 38 39 40 41 42 43 44 45 46 47 48 49 50

000
ASUS43 KMPX 232201
RWRMN
WEATHER ROUNDUP FOR MINNESOTA
NATIONAL WEATHER SERVICE TWIN CITIES/CHANHASSEN MN
500 PM CDT TUE AUG 23 2016


NOTE: "FAIR" INDICATES FEW OR NO CLOUDS BELOW 12,000 FEET WITH NO
SIGNIFICANT WEATHER AND/OR OBSTRUCTIONS TO VISIBILITY. N/A MEANS
CURRENT SKY AND/OR WEATHER CONDITIONS ARE NOT AVAILABLE.

MNZ060>063-068>070-232300-
   Twin Cities Metro

CITY           SKY/WX    TMP DP  RH WIND       PRES   REMARKS
TWIN CITIES    CLOUDY    81  66  60 S21G29    29.90R
ST PAUL        CLOUDY    80  67  64 S20G26    29.91R
CRYSTAL        CLOUDY    81  66  60 S20       29.88R
BLAINE         CLOUDY    82  70  65 S15G28    29.89S
LAKEVILLE      CLOUDY    75  66  73 S13G20    29.92R
EDEN PRAIRIE   CLOUDY    81  66  60 S22G32    29.89R
LAKEVILLE      CLOUDY    75  66  73 S13G20    29.92R
SOUTH ST PAUL  CLOUDY    81  64  57 S13G21    29.91S
LAKE ELMO      FAIR      79  68  69 S13       29.93R
$$
MNZ001>005-007-008-013>017-022>024-027-028-232300-
   Northwest Minnesota

CITY           SKY/WX    TMP DP  RH WIND       PRES   REMARKS
BEMIDJI        SUNNY     85  69  57 S10G22    29.77S
HALLOCK        CLOUDY    81  68  65 S12       29.65S
ROSEAU         CLOUDY    82  72  69 S5        29.68F
WARROAD        CLOUDY    82  72  69 S3        29.69F
THIEF RVR FALL SUNNY     87  67  51 S23G32    29.68F HX  90
CROOKSTON      MOSUNNY   86  68  54 S22       29.67F
FOSSTON        SUNNY     84  64  51 S21G26    29.75R
DETROIT LAKES  SUNNY     82  68  61 S17G28    29.79S
MOORHEAD       SUNNY     88  63  42 S13G25    29.71F
PARK RAPIDS    SUNNY     85  68  56 S16G23    29.80S
MAHNOMEN       FAIR      83  67  58 S18G29    29.75R
$$
MNZ006-009>011-018-025>026-232300-
   North Central Minnesota

CITY           SKY/WX    TMP DP  RH WIND       PRES   REMARKS
BAUDETTE       MOSUNNY   86  68  54 S20G26    29.69F
FLAG ISLAND    PTSUNNY   75  70  83 CALM      29.70S HAZE
INTL FALLS     MOSUNNY   85  68  56 VRB7G18   29.74F
WASKISH        SUNNY     86  70  58 S10G20    29.73S HX  90
BIG FORK       SUNNY     84  66  54 S17       29.80S
LONGVILLE      MOSUNNY   82  68  61 S12G17    29.82S
GRAND RAPIDS   MOSUNNY   83  68  60 S12       29.84S
ORR            SUNNY     82  64  54 S9G17     29.79S
COOK           MOSUNNY   84  66  54 S9G22     29.83S
WALKER         FAIR      83  69  61 S13G21    29.78S
$$
MNZ012-019>021-037-232300-
   Northeast Minnesota

CITY           SKY/WX    TMP DP  RH WIND       PRES   REMARKS
DULUTH         MOSUNNY   83  67  58 S17       29.88F
ELY            SUNNY     82  64  54 S12G17    29.86S
HIBBING        SUNNY     82  65  56 S12G21    29.85R
EVELETH        SUNNY     83  63  50 S14G22    29.87S
DULUTH HARBOR  MOSUNNY   88  68  51 S18G30    29.85S HX  91
TWO HARBORS    CLOUDY    82  72  69 S6        29.87R
SILVER BAY     SUNNY     81  66  61 S7        29.87S
GRAND MARAIS     N/A     76  63  64 SE3       29.88S
G MARAIS ARPRT SUNNY     75  63  64 S8        29.94S
$$
MNZ029>031-032-039>041-046>048-054>057-064-232300-
   West Central Minnesota

CITY           SKY/WX    TMP DP  RH WIND       PRES   REMARKS
FERGUS FALLS   SUNNY     84  68  58 S20       29.79R
WHEATON        SUNNY     84  66  54 S18G24    29.79R
MORRIS         CLOUDY    82  66  57 S18G25    29.80R
ALEXANDRIA     CLOUDY    80  70  71 S15       29.85R
ELBOW LAKE     FAIR      82  69  66 S20       29.80S
WADENA         SUNNY     82  70  65 S16       29.81R
GLENWOOD       CLOUDY    81  72  74 S20       29.85R
APPLETON       CLOUDY    81  66  61 S13G20    29.81R
BENSON         CLOUDY    81  68  65 S16G23    29.82R
ORTONVILLE     CLOUDY    81  66  61 S13G20    29.79S
MADISON        CLOUDY    79  64  61 S16       29.82R
WILLMAR        FAIR      81  72  74 S12G17    29.87R
$$
MNZ033>034-036-042>043-049>051-058-059-232300-
   Central Minnesota

CITY           SKY/WX    TMP DP  RH WIND       PRES   REMARKS
ST CLOUD       PTSUNNY   80  72  76 SE13      29.86S
SAUK CENTRE    MOCLDY    80  70  72 S16G25    29.85S
PAYNESVILLE    CLOUDY    79  69  73 S13       29.88R
AITKIN         CLOUDY    84  66  54 S15G21    29.83F
PINE RIVER     MOSUNNY   82  72  69 S9        29.85F
BRAINERD       CLOUDY    82  69  64 S18       29.84S
STAPLES          N/A     81  68  65 S14G20    29.83R
LONG PRAIRIE   CLOUDY    77  70  78 SE12G17   29.86R
LITTLE FALLS   CLOUDY    81  66  61 S14G21    29.86R
LITCHFIELD     PTSUNNY   81  72  74 SE5       29.88R
BUFFALO        CLOUDY    80  69  67 SE15      29.89R
MAPLE LAKE     CLOUDY    81  73  76 S6        29.89R
HUTCHINSON     MOSUNNY   79  73  81 S8        29.90R
$$
MNZ037-044-045-052-053-232300-
   East Central Minnesota

CITY           SKY/WX    TMP DP  RH WIND       PRES   REMARKS
PRINCETON      CLOUDY    82  72  69 SE9       29.88S
MORA           CLOUDY    79  66  65 S7        29.90S
CAMBRIDGE      CLOUDY    82  70  65 SE7       29.87S
RUSH CITY      CLOUDY    80  69  71 S9        29.90R
MOOSE LAKE     MOSUNNY   82  66  57 S10G17    29.86S
HINCKLEY       FAIR      81  70  69 S12G17    29.89S
CLOQUET        MOSUNNY   82  64  54 S13G20    29.88S
MCGREGOR       CLOUDY    82  68  61 S12       29.86F
$$
MNZ071>073-080-081-089-090-097-098-232300-
   Southwest Minnesota

CITY           SKY/WX    TMP DP  RH WIND       PRES   REMARKS
MONTEVIDEO     CLOUDY    81  70  69 S15       29.85R
GRANITE FALLS  CLOUDY    80  71  74 SE13      29.85S
CANBY          CLOUDY    78  68  71 SE12      29.83R
MARSHALL       CLOUDY    75  70  84 S13G18    29.83S
REDWOOD FALLS  LGT RAIN  75  71  87 SE10      29.84S
OLIVIA         LGT RAIN  77  70  78 S14G23    29.86R
PIPESTONE      CLOUDY    68  64  88 S8        29.85S
WINDOM         RAIN      68  64  88 S12       29.90R
WORTHINGTON    CLOUDY    65  64  97 S13       29.88F
JACKSON        LGT SNOW  64  63  94 S15       29.91R
TRACY          LGT RAIN  74  71  90 S9        29.85R
SLAYTON        CLOUDY    64  63  94 S14G23    29.88R
$$
MNZ065>067-074>077-082>085-091>093-232300-
   South Central Minnesota

CITY           SKY/WX    TMP DP  RH WIND       PRES   REMARKS
MANKATO        CLOUDY    75  64  69 SE13G23   29.91R
NEW ULM        TSTM      73  70  88 SE9       29.88R
ST JAMES       RAIN      64  61  88 S13G20    29.90R
FAIRMONT       TSTM      65  63  93 S15       29.91R
GLENCOE        CLOUDY    79  73  79 SE9       29.89R
FARIBAULT      PTSUNNY   77  64  65 SE13G24   29.94R
OWATONNA       PTSUNNY   77  63  61 SE14G22   29.94R
WASECA         CLOUDY    73  63  68 S14G20    29.95R
ALBERT LEA     CLOUDY    75  63  64 S16       29.95R
$$
MNZ078>079-086>088-094>096-232300-
   Southeast Minnesota

CITY           SKY/WX    TMP DP  RH WIND       PRES   REMARKS
ROCHESTER      CLOUDY    76  65  68 S16       29.98S
RED WING       CLOUDY    81  64  57 S8G16     29.93S
DODGE CENTER   CLOUDY    75  63  64 S18G24    29.97S
WINONA         PTSUNNY   79  64  61 S7        29.98S
AUSTIN         PTSUNNY   75  63  64 S12G17    29.97R
PRESTON        PTSUNNY   75  63  64 S14       30.00S
$$
ABBREVIATIONS USED IN REMARKS
   TC - TEMPERATURES IN CELSIUS
  WCI - WIND CHILL INDEX
   HX - HEAT INDEX
  VSB - VISIBILITY
$$



USA.gov is the U.S. government's official web portal to all federal, state and local government web resources and services.